Regional Weather Roundup
Issued by NWS

Home | Current Version | Previous Version | Text Only | Print | Product List | Glossary On
Versions: 1 2 3 4 5 6 7 8 9 10 11 12 13 14 15 16 17 18 19 20 21 22 23 24 25 26 27
000
ASUS45 KPSR 230210
RWRAZ

ARIZONA HOURLY REGIONAL WEATHER ROUNDUP
NATIONAL WEATHER SERVICE PHOENIX AZ
700 PM MST SUN OCT 22 2017

NOTE: FAIR INDICATES FEW OR NO CLOUDS BELOW 12,000 FEET WITH NO
SIGNIFICANT WEATHER AND/OR OBSTRUCTIONS TO VISIBILITY.

AZZ001>003-036-230300-
NORTHWEST ARIZONA

CITY           SKY/WX    TMP DP  RH WIND       PRES   REMARKS
BULLHEAD CITY  CLEAR     84  30  14 N13       30.11R
KINGMAN        CLEAR     65  26  23 E10       30.28R
$$

AZZ004>008-015-016-018-230300-
NORTH CENTRAL ARIZONA

CITY           SKY/WX    TMP DP  RH WIND       PRES   REMARKS
GRAND CANYON   CLEAR     41  13  31 NE3       30.47R
WILLIAMS       CLEAR     52  23  32 CALM      30.46R
PRESCOTT       CLEAR     63  26  24 CALM      30.34R
FLAGSTAFF      CLEAR     47  14  26 CALM      30.48R
PAYSON         CLEAR     68  14  12 N5        30.35R
PAGE           CLEAR     61  21  21 SE7       30.34R
$$

AZZ009>014-017-230300-
NORTHEAST ARIZONA

CITY           SKY/WX    TMP DP  RH WIND       PRES   REMARKS
WINSLOW        CLEAR     50   9  19 W3        30.38R
SAINT JOHNS    CLEAR     52  15  23 W5        30.39R
WINDOW ROCK    CLEAR     54  20  26 CALM      30.45R
SHOW LOW       CLEAR     55  16  21 E3        30.45S
$$

AZZ540-542>544-546-548-230300-
GREATER PHOENIX AREA

CITY           SKY/WX    TMP DP  RH WIND       PRES   REMARKS
PHOENIX        CLEAR     83  25  12 SW5       30.06R
BUCKEYE        CLEAR     81  14   8 NW9       30.08R
GLENDALE       CLEAR     81  27  13 CALM      30.08
LUKE AFB       CLEAR     78  31  18 W3        30.06R
DEER VALLEY    CLEAR     80  14   8 N3        30.09R
SCOTTSDALE     CLEAR     83  21  10 NW3       30.10R
MESA-FALCON    CLEAR     81  28  15 W3        30.09R
MESA-GATEWAY   CLEAR     81  27  13 NW5       30.09S
CHANDLER       CLEAR     79  21  11 W6        30.08R
$$

AZZ539-553-230300-
SOUTHWEST MARICOPA COUNTY AND PINAL COUNTY

CITY           SKY/WX    TMP DP  RH WIND       PRES   REMARKS
CASA GRANDE    NOT AVBL
$$

AZZ503-504-507>509-230300-
SOUTHEAST ARIZONA

CITY           SKY/WX    TMP DP  RH WIND       PRES   REMARKS
TUCSON         CLEAR     80  22  11 NW5       30.16R
DAVIS-MONTHAN  CLEAR     78  21  12 NW10      30.14R
RYAN FIELD     CLEAR     75  23  14 W5        30.16R
NOGALES        CLEAR     72  24  16 N8        30.21R
SIERRA VISTA   CLEAR     65  22  19 S3        30.29R
DOUGLAS        CLEAR     67  24  19 NE10      30.24R
SAFFORD        CLEAR     67  12  12 N7        30.18R
$$

AZZ532-230300-
SOUTHWEST ARIZONA

CITY           SKY/WX    TMP DP  RH WIND       PRES   REMARKS
YUMA           CLEAR     82  20  10 N6        30.06R
$$

CAZ041-043-047-048-061-525>527-560>570-230300-
SOUTHERN CALIFORNIA

CITY           SKY/WX    TMP DP  RH WIND       PRES   REMARKS
DOWNTOWN L.A.  CLEAR     80  41  24 W3        30.04R
L.A. AIRPORT   PTCLDY    69  58  67 W13       30.05S
SAN DIEGO      PTCLDY    77  42  28 NW6       30.06R
BURBANK        CLEAR     84  33  16 E3        30.07R
ONTARIO        CLEAR     84  29  13 VRB3      30.08R
RIVERSIDE      CLEAR     86  28  12 NE7       30.08R
PALM SPRINGS   CLEAR     85  33  15 CALM      30.11R
EL CENTRO NAS  CLEAR     77  20  12 W7        30.08R
IMPERIAL       CLEAR     78  30  17 W5        30.06R
BLYTHE         CLEAR     81  18   9 CALM      30.08S
NEEDLES        CLEAR     84  32  15 N7        30.12S
$$

NVZ020-UTZ003-230300-
SOUTHERN NEVADA-UTAH

CITY           SKY/WX    TMP DP  RH WIND       PRES   REMARKS
LAS VEGAS      CLEAR     76  29  17 CALM      30.23R
SALT LAKE CITY MOCLDY    62  30  29 CALM      30.34R
$$

NMZ009-TXZ055-230300-
NEW MEXICO-WEST TEXAS

CITY           SKY/WX    TMP DP  RH WIND       PRES   REMARKS
ALBUQUERQUE    PTCLDY    64  24  21 N7        30.36R
EL PASO        CLEAR     72  14  11 CALM      30.25R
$$


........................KEY........................
SKY/WX - SKY CONDITION/WEATHER
TMP    - TEMPERATURE IN FAHRENHEIT
DP     - DEW POINT IN FAHRENHEIT
RH     - RELATIVE HUMIDITY IN PERCENT
WIND   - DIRECTION AND SPEED IN MILES PER HOUR (MPH)
VRB    - VARIABLE WIND DIRECTION
PRES   - MEAN SEA LEVEL PRESSURE IN INCHES OF MERCURY
         F - FALLING PRESSURE   R - RISING PRESSURE
         S - STEADY PRESSURE
VSB    - VISIBILITY IN MILES
HX     - HEAT INDEX IN FAHRENHEIT
WCI    - WIND CHILL INDEX IN FAHRENHEIT
TC     - TEMPERATURE IN CELSIUS WHICH IS ALSO KNOWN AS
         TEMPERATURE IN CENTIGRADE
AFB    - AIR FORCE BASE
         LUKE AFB IS LUKE AIR FORCE BASE
         DAVIS-MONTHAN IS DAVIS-MONTHAN AIR FORCE BASE
NAS    - NAVAL AIR STATION
         EL CENTRO NAS IS EL CENTRO NAVAL AIR STATION
N/A    - NOT AVAILABLE





USA.gov is the U.S. government's official web portal to all federal, state and local government web resources and services.